Retour au catalogue

GLOBALSTAR M073

ActifCommunicationsLEO
NORAD 37193·PAYLOAD·🇺🇸 United States

Lancé Oct 19, 2010 depuis Baikonur Cosmodrome

Loading…

Prochains Passages (prochaines 24 heures)

TLE

FraisSource: Space-Track

Époque: Sep 14, 2026, 11:12 UTC

1 37193U 10054F   26257.46711366 -.00000073  00000-0  17304-3 0  9998
2 37193  52.0052 152.5248 0000488  86.2355  84.8165 12.62268005735206

Suivez GLOBALSTAR M073 en temps réel avec AllMySat

Download on the App Store